Zurück zum Katalog

ONEWEB-0603

AktivKommunikationPO
NORAD 54667·PAYLOAD·🇬🇧 United Kingdom

Gestartet Dec 8, 2022 von Cape Canaveral Space Force Station

Loading…

Nächste Überflüge (nächste 24 Stunden)

TLE

AktuellSource: CelesTrak SupGP

Epoche: Sep 14, 2026, 17:05 UTC

1 54667C 22166AB  26257.71233057  .00001172  00000+0  28422-2 0  2572
2 54667  87.9279 226.1427 0002218  83.7125 309.8637 13.21820272    10

Verfolge ONEWEB-0603 in Echtzeit mit AllMySat

Download on the App Store